GW5522 Weather Reports


time (UTC)temp
C
wind
direction
speed
KPH
gust
KPH
rain 1hr
cm
rain 24hr
cm
rain mn
cm
humidity
%
barometer
mb
20260508023414 6 0 0.0 0.0 0.00 0.00 0.00 80 1013.0
20260508022914 6 0 0.0 0.0 0.00 0.00 0.00 79 1013.0
20260508022414 6 0 0.0 0.0 0.00 0.00 0.00 79 1013.0
20260508021914 6 0 0.0 0.0 0.00 0.00 0.00 79 1013.0
20260508021414 6 0 0.0 0.0 0.00 0.00 0.00 79 1013.0
20260508020914 7 0 0.0 0.0 0.00 0.00 0.00 75 1013.0
20260508020415 7 0 0.0 0.0 0.00 0.00 0.00 73 1013.0
20260508015914 7 0 0.0 0.0 0.00 0.00 0.00 72 1013.0
20260508015415 7 0 0.0 0.0 0.00 0.00 0.00 71 1013.0
20260508014915 7 0 0.0 0.0 0.00 0.00 0.00 69 1013.0
20260508014414 8 0 0.0 0.0 0.00 0.00 0.00 68 1013.0
20260508013914 8 0 0.0 0.0 0.00 0.00 0.00 67 1013.0
20260508013414 8 0 0.0 0.0 0.00 0.00 0.00 65 1013.0
20260508012914 9 0 0.0 0.0 0.00 0.00 0.00 63 1013.0
20260508012414 9 0 0.0 0.0 0.00 0.00 0.00 62 1013.0
20260508011914 10 0 0.0 0.0 0.00 0.00 0.00 61 1013.0
20260508011414 10 0 0.0 0.0 0.00 0.00 0.00 60 1013.0
20260508010914 10 0 0.0 0.0 0.00 0.00 0.00 58 1013.0
20260508010415 10 0 0.0 0.0 0.00 0.00 0.00 57 1013.0
20260508005915 10 327 0.0 1.6 0.00 0.00 0.00 57 1012.0
20260508005414 10 346 0.0 1.6 0.00 0.00 0.00 56 1012.0
20260508004915 11 0 0.0 0.0 0.00 0.00 0.00 56 1012.0
20260508004414 11 17 0.0 1.6 0.00 0.00 0.00 55 1012.0
20260508003914 11 316 0.0 4.8 0.00 0.00 0.00 55 1012.0
20260508003414 11 292 0.0 0.0 0.00 0.00 0.00 55 1012.0
20260508002914 11 352 1.6 4.8 0.00 0.00 0.00 54 1012.0
20260508002414 11 337 1.6 4.8 0.00 0.00 0.00 53 1012.0
20260508001914 12 347 3.2 4.8 0.00 0.00 0.00 52 1012.0
20260508001414 12 15 6.4 12.9 0.00 0.00 0.00 51 1012.0
20260508000915 12 352 4.8 9.7 0.00 0.00 0.00 52 1012.0
20260508000415 12 17 1.6 4.8 0.00 0.00 0.00 52 1012.0
20260507235914 12 248 3.2 6.4 0.00 0.00 0.00 52 1012.0
20260507235414 12 332 1.6 4.8 0.00 0.00 0.00 52 1012.0
20260507234915 12 352 3.2 8.0 0.00 0.00 0.00 51 1012.0
20260507234414 12 8 4.8 11.3 0.00 0.00 0.00 50 1011.0
20260507233915 12 10 3.2 11.3 0.00 0.00 0.00 49 1011.0
20260507233415 13 13 11.3 17.7 0.00 0.00 0.00 49 1011.0
20260507232914 13 11 8.0 19.3 0.00 0.00 0.00 47 1011.0
20260507232414 13 339 6.4 16.1 0.00 0.00 0.00 46 1011.0
20260507231914 13 359 4.8 9.7 0.00 0.00 0.00 44 1011.0
20260507231422 13 346 3.2 8.0 0.00 0.00 0.00 44 1011.0
20260507230914 13 27 3.2 6.4 0.00 0.00 0.00 43 1011.0
20260507230415 14 323 1.6 4.8 0.00 0.00 0.00 43 1011.0
20260507225914 14 285 3.2 8.0 0.00 0.00 0.00 42 1011.0
20260507225415 14 325 3.2 8.0 0.00 0.00 0.00 42 1011.0
20260507224915 14 348 3.2 6.4 0.00 0.00 0.00 41 1011.0
20260507224415 14 313 3.2 8.0 0.00 0.00 0.00 41 1011.0
20260507223914 15 271 3.2 6.4 0.00 0.00 0.00 41 1011.0
20260507223415 15 297 3.2 9.7 0.00 0.00 0.00 41 1011.0
20260507222914 15 287 1.6 6.4 0.00 0.00 0.00 40 1011.0
20260507222415 15 218 4.8 9.7 0.00 0.00 0.00 40 1011.0
20260507221915 15 315 1.6 4.8 0.00 0.00 0.00 40 1011.0
20260507221414 15 213 4.8 11.3 0.00 0.00 0.00 41 1011.0
20260507220914 16 284 3.2 6.4 0.00 0.00 0.00 40 1011.0
20260507220415 16 335 3.2 8.0 0.00 0.00 0.00 39 1011.0
20260507215914 16 327 4.8 8.0 0.00 0.00 0.00 38 1011.0
20260507215414 16 7 6.4 12.9 0.00 0.00 0.00 38 1011.0
20260507214915 16 331 4.8 9.7 0.00 0.00 0.00 37 1010.0
20260507214414 16 311 1.6 6.4 0.00 0.00 0.00 38 1010.0
20260507213914 16 6 3.2 6.4 0.00 0.00 0.00 38 1010.0
20260507213415 16 292 1.6 6.4 0.00 0.00 0.00 39 1010.0
20260507212914 16 1 4.8 8.0 0.00 0.00 0.00 40 1010.0
20260507212415 16 355 4.8 11.3 0.00 0.00 0.00 39 1010.0
20260507211914 16 317 1.6 6.4 0.00 0.00 0.00 40 1010.0
20260507211415 16 278 4.8 9.7 0.00 0.00 0.00 39 1010.0
20260507210915 17 14 1.6 6.4 0.00 0.00 0.00 37 1010.0
20260507210415 17 352 3.2 6.4 0.00 0.00 0.00 39 1010.0
20260507205914 16 335 3.2 6.4 0.00 0.00 0.00 40 1010.0
20260507205414 16 0 6.4 14.5 0.00 0.00 0.00 39 1010.0
20260507204914 16 7 8.0 12.9 0.00 0.00 0.00 39 1010.0
20260507204414 16 276 3.2 6.4 0.00 0.00 0.00 40 1010.0
20260507203915 16 18 1.6 6.4 0.00 0.00 0.00 40 1010.0
20260507203414 16 330 3.2 6.4 0.00 0.00 0.00 41 1010.0
20260507202915 16 330 3.2 6.4 0.00 0.00 0.00 40 1010.0
20260507202414 16 290 3.2 8.0 0.00 0.00 0.00 40 1010.0
20260507201917 16 322 4.8 9.7 0.00 0.00 0.00 40 1010.0
20260507201415 16 296 3.2 6.4 0.00 0.00 0.00 39 1010.0
20260507200915 16 339 3.2 8.0 0.00 0.00 0.00 39 1010.0
20260507200414 16 261 3.2 6.4 0.00 0.00 0.00 38 1010.0
20260507195915 16 317 1.6 4.8 0.00 0.00 0.00 38 1010.0
20260507195414 16 338 6.4 8.0 0.00 0.00 0.00 39 1010.0
20260507194915 16 26 1.6 4.8 0.00 0.00 0.00 41 1011.0
20260507194416 16 7 4.8 9.7 0.00 0.00 0.00 40 1011.0
20260507193914 16 359 4.8 9.7 0.00 0.00 0.00 39 1011.0
20260507193414 17 337 3.2 4.8 0.00 0.00 0.00 37 1011.0
20260507192915 16 260 1.6 4.8 0.00 0.00 0.00 41 1011.0
20260507192415 16 294 1.6 4.8 0.00 0.00 0.00 41 1011.0
20260507191914 16 6 6.4 9.7 0.00 0.00 0.00 39 1011.0
20260507191415 16 297 3.2 8.0 0.00 0.00 0.00 39 1011.0
20260507190915 17 190 3.2 11.3 0.00 0.00 0.00 39 1011.0
20260507190414 17 0 4.8 9.7 0.00 0.00 0.00 37 1011.0
20260507185914 17 169 4.8 9.7 0.00 0.00 0.00 37 1011.0
20260507185414 17 278 6.4 16.1 0.00 0.00 0.00 38 1011.0
20260507184914 16 200 4.8 9.7 0.00 0.00 0.00 40 1011.0
20260507184415 17 122 3.2 14.5 0.00 0.00 0.00 41 1011.0
20260507183914 16 335 0.0 3.2 0.00 0.00 0.00 40 1011.0
20260507183417 16 334 6.4 11.3 0.00 0.00 0.00 41 1011.0
20260507182914 16 183 3.2 9.7 0.00 0.00 0.00 39 1011.0
20260507182415 16 2 4.8 9.7 0.00 0.00 0.00 41 1011.0
20260507181915 16 353 6.4 9.7 0.00 0.00 0.00 41 1011.0
20260507181414 16 238 3.2 8.0 0.00 0.00 0.00 40 1011.0
20260507180914 16 315 3.2 9.7 0.00 0.00 0.00 40 1011.0
20260507180415 15 335 3.2 8.0 0.00 0.00 0.00 44 1011.0
20260507175914 15 22 1.6 6.4 0.00 0.00 0.00 42 1011.0
20260507175415 15 10 1.6 6.4 0.00 0.00 0.00 43 1011.0
20260507174917 16 276 3.2 4.8 0.00 0.00 0.00 39 1011.0
20260507174414 16 338 0.0 4.8 0.00 0.00 0.00 40 1011.0
20260507173915 15 204 1.6 9.7 0.00 0.00 0.00 44 1011.0
20260507173415 14 339 4.8 12.9 0.00 0.00 0.00 45 1011.0
20260507172914 14 299 4.8 8.0 0.00 0.00 0.00 45 1011.0
20260507172422 14 178 3.2 8.0 0.00 0.00 0.00 44 1011.0
20260507171915 15 192 4.8 9.7 0.00 0.00 0.00 44 1011.0
20260507171414 15 267 1.6 6.4 0.00 0.00 0.00 44 1011.0
20260507170914 14 240 3.2 8.0 0.00 0.00 0.00 45 1011.0
20260507170414 15 157 0.0 1.6 0.00 0.00 0.00 45 1011.0
20260507165914 15 335 0.0 4.8 0.00 0.00 0.00 44 1011.0
20260507165416 15 333 4.8 8.0 0.00 0.00 0.00 45 1011.0
20260507164914 15 69 1.6 4.8 0.00 0.00 0.00 46 1012.0
20260507164415 15 257 4.8 12.9 0.00 0.00 0.00 45 1012.0
20260507163915 15 333 3.2 8.0 0.00 0.00 0.00 45 1012.0
20260507163415 14 188 3.2 6.4 0.00 0.00 0.00 46 1012.0
20260507162916 13 165 3.2 6.4 0.00 0.00 0.00 48 1012.0
20260507162415 14 171 3.2 6.4 0.00 0.00 0.00 48 1012.0
20260507161915 14 230 0.0 6.4 0.00 0.00 0.00 45 1012.0
20260507161414 14 208 3.2 9.7 0.00 0.00 0.00 47 1012.0
20260507160915 13 307 0.0 3.2 0.00 0.00 0.00 50 1012.0
20260507160414 13 0 0.0 1.6 0.00 0.00 0.00 51 1012.0
20260507155915 13 298 0.0 0.0 0.00 0.00 0.00 50 1012.0
20260507155414 13 280 3.2 6.4 0.00 0.00 0.00 51 1012.0
20260507154914 13 9 4.8 8.0 0.00 0.00 0.00 50 1012.0
20260507154415 13 326 3.2 9.7 0.00 0.00 0.00 51 1012.0
20260507153915 13 26 3.2 6.4 0.00 0.00 0.00 50 1012.0
20260507153415 13 353 3.2 4.8 0.00 0.00 0.00 51 1012.0
20260507152916 13 212 3.2 6.4 0.00 0.00 0.00 47 1012.0
20260507152414 13 8 4.8 12.9 0.00 0.00 0.00 50 1012.0
20260507151915 13 24 1.6 3.2 0.00 0.00 0.00 52 1012.0
20260507151416 13 17 1.6 6.4 0.00 0.00 0.00 51 1012.0
20260507150914 13 271 3.2 8.0 0.00 0.00 0.00 49 1012.0
20260507150415 13 204 3.2 6.4 0.00 0.00 0.00 51 1012.0
20260507145914 13 158 1.6 4.8 0.00 0.00 0.00 49 1012.0
20260507145414 13 191 1.6 4.8 0.00 0.00 0.00 51 1012.0
20260507144915 13 352 1.6 4.8 0.00 0.00 0.00 53 1012.0
20260507144415 13 52 1.6 6.4 0.00 0.00 0.00 49 1013.0
20260507143915 13 336 1.6 6.4 0.00 0.00 0.00 51 1013.0
20260507143417 13 216 3.2 6.4 0.00 0.00 0.00 52 1013.0
20260507142914 13 298 1.6 4.8 0.00 0.00 0.00 52 1013.0
20260507142414 13 316 3.2 9.7 0.00 0.00 0.00 53 1013.0
20260507141914 13 9 1.6 4.8 0.00 0.00 0.00 56 1013.0
20260507141416 12 186 3.2 8.0 0.00 0.00 0.00 56 1013.0
20260507140915 12 190 6.4 9.7 0.00 0.00 0.00 56 1013.0
20260507140414 12 320 3.2 6.4 0.00 0.00 0.00 57 1013.0
20260507135914 11 341 0.0 3.2 0.00 0.00 0.00 61 1013.0
20260507135414 11 311 0.0 3.2 0.00 0.00 0.00 63 1013.0
20260507134915 11 0 0.0 0.0 0.00 0.00 0.00 63 1013.0
20260507134414 10 336 1.6 3.2 0.00 0.00 0.00 65 1013.0
20260507133915 10 34 1.6 4.8 0.00 0.00 0.00 66 1013.0
20260507133415 10 226 3.2 4.8 0.00 0.00 0.00 69 1013.0
20260507132915 9 336 0.0 3.2 0.00 0.00 0.00 73 1013.0
20260507132414 8 21 3.2 6.4 0.00 0.00 0.00 76 1013.0
20260507131915 8 47 0.0 3.2 0.00 0.00 0.00 79 1013.0
20260507131416 8 12 1.6 3.2 0.00 0.00 0.00 83 1013.0
20260507130915 7 52 1.6 3.2 0.00 0.00 0.00 91 1013.0
20260507130415 7 18 3.2 4.8 0.00 0.00 0.00 95 1013.0
20260507125914 6 6 3.2 4.8 0.00 0.00 0.00 97 1014.0
20260507125417 6 50 1.6 3.2 0.00 0.00 0.00 97 1014.0
20260507124915 5 46 3.2 4.8 0.00 0.00 0.00 98 1013.0
20260507124415 5 0 3.2 4.8 0.00 0.00 0.00 98 1014.0
20260507123915 5 28 3.2 6.4 0.00 0.00 0.00 98 1014.0
20260507123415 4 15 1.6 3.2 0.00 0.00 0.00 98 1014.0
20260507122914 4 12 0.0 3.2 0.00 0.00 0.00 98 1013.0
20260507122414 3 185 0.0 3.2 0.00 0.00 0.00 98 1014.0
20260507121915 3 10 0.0 1.6 0.00 0.00 0.00 98 1013.0
20260507121414 3 0 0.0 0.0 0.00 0.00 0.00 98 1013.0
20260507120914 3 0 0.0 0.0 0.00 0.00 0.00 98 1014.0
20260507120416 3 0 0.0 0.0 0.00 0.00 0.00 98 1014.0
20260507115914 3 0 0.0 0.0 0.00 0.00 0.00 98 1014.0
20260507115414 3 200 0.0 3.2 0.00 0.00 0.00 98 1014.0
20260507114914 3 254 0.0 0.0 0.00 0.00 0.00 98 1014.0
20260507114414 3 0 0.0 0.0 0.00 0.00 0.00 98 1014.0
20260507113915 2 328 0.0 1.6 0.00 0.00 0.00 98 1014.0
20260507113415 2 24 0.0 3.2 0.00 0.00 0.00 98 1014.0
20260507112914 2 0 0.0 0.0 0.00 0.00 0.00 98 1014.0
20260507112417 2 0 0.0 0.0 0.00 0.00 0.00 98 1014.0
20260507111914 2 192 4.8 6.4 0.00 0.00 0.00 98 1013.0
20260507111414 2 197 1.6 3.2 0.00 0.00 0.00 98 1014.0
20260507110914 2 244 0.0 1.6 0.00 0.00 0.00 98 1014.0
20260507110415 2 0 0.0 0.0 0.00 0.00 0.00 98 1013.0
20260507105915 2 191 0.0 3.2 0.00 0.00 0.00 97 1013.0
20260507105414 2 0 0.0 0.0 0.00 0.00 0.00 97 1013.0
20260507104915 2 0 0.0 0.0 0.00 0.00 0.00 98 1013.0
20260507104416 2 0 0.0 0.0 0.00 0.00 0.00 97 1013.0
20260507103914 2 0 0.0 0.0 0.00 0.00 0.00 97 1013.0
20260507103414 2 0 0.0 0.0 0.00 0.00 0.00 97 1013.0
20260507102914 2 0 0.0 0.0 0.00 0.00 0.00 97 1013.0
20260507102414 2 0 0.0 0.0 0.00 0.00 0.00 97 1013.0
20260507101914 1 0 0.0 0.0 0.00 0.00 0.00 97 1013.0
20260507101414 1 0 0.0 0.0 0.00 0.00 0.00 97 1013.0
20260507100915 1 0 0.0 0.0 0.00 0.00 0.00 97 1013.0
20260507100415 1 0 0.0 0.0 0.00 0.00 0.00 97 1013.0
20260507095914 1 0 0.0 0.0 0.00 0.00 0.00 97 1013.0
20260507095415 1 0 0.0 0.0 0.00 0.00 0.00 97 1013.0
20260507094914 1 0 0.0 0.0 0.00 0.00 0.00 97 1013.0
20260507094415 1 0 0.0 0.0 0.00 0.00 0.00 97 1013.0
20260507093914 1 0 0.0 0.0 0.00 0.00 0.00 97 1013.0
20260507093414 1 0 0.0 0.0 0.00 0.00 0.00 97 1013.0
20260507092914 1 0 0.0 0.0 0.00 0.00 0.00 97 1013.0
20260507092415 1 0 0.0 0.0 0.00 0.00 0.00 96 1013.0
20260507091915 1 0 0.0 0.0 0.00 0.00 0.00 96 1013.0
20260507091414 1 0 0.0 0.0 0.00 0.00 0.00 96 1013.0
20260507090915 1 0 0.0 0.0 0.00 0.00 0.00 96 1013.0
20260507090415 2 0 0.0 0.0 0.00 0.00 0.00 96 1013.0
20260507085916 2 0 0.0 0.0 0.00 0.00 0.00 96 1013.0
20260507085416 2 0 0.0 0.0 0.00 0.00 0.00 96 1013.0
20260507084915 2 0 0.0 0.0 0.00 0.00 0.00 96 1013.0
20260507084414 2 0 0.0 0.0 0.00 0.00 0.00 96 1013.0
20260507083915 2 0 0.0 0.0 0.00 0.00 0.00 96 1013.0
20260507083414 2 0 0.0 0.0 0.00 0.00 0.00 96 1013.0
20260507082914 2 0 0.0 0.0 0.00 0.00 0.00 96 1013.0
20260507082415 2 0 0.0 0.0 0.00 0.00 0.00 95 1013.0
20260507081915 2 0 0.0 0.0 0.00 0.00 0.00 95 1013.0
20260507081414 2 0 0.0 0.0 0.00 0.00 0.00 95 1013.0
20260507080914 2 0 0.0 0.0 0.00 0.00 0.00 95 1013.0
20260507080414 2 0 0.0 0.0 0.00 0.00 0.00 95 1013.0
20260507075914 2 0 0.0 0.0 0.00 0.00 0.00 95 1013.0
20260507075415 3 0 0.0 0.0 0.00 0.00 0.00 95 1013.0
20260507074914 3 0 0.0 0.0 0.00 0.00 0.00 94 1013.0
20260507074415 3 0 0.0 0.0 0.00 0.00 0.00 94 1013.0
20260507073914 3 0 0.0 0.0 0.00 0.00 0.00 94 1013.0
20260507073414 3 0 0.0 0.0 0.00 0.00 0.00 94 1013.0
20260507072914 3 0 0.0 0.0 0.00 0.00 0.00 94 1013.0
20260507072414 3 0 0.0 0.0 0.00 0.00 0.00 93 1013.0
20260507071914 3 0 0.0 0.0 0.00 0.00 0.00 93 1013.0
20260507071420 3 0 0.0 0.0 0.00 0.00 0.00 93 1013.0
20260507070914 4 0 0.0 0.0 0.00 0.00 0.00 93 1013.0
20260507070414 4 0 0.0 0.0 0.00 0.00 0.00 93 1013.0
20260507065914 4 0 0.0 0.0 0.00 0.00 0.00 92 1013.0
20260507065415 4 0 0.0 0.0 0.00 0.00 0.00 92 1013.0
20260507064914 4 0 0.0 0.0 0.00 0.00 0.00 91 1013.0
20260507064415 5 0 0.0 0.0 0.00 0.00 0.00 91 1013.0
20260507063916 5 0 0.0 0.0 0.00 0.00 0.00 90 1013.0
20260507063415 5 0 0.0 0.0 0.00 0.00 0.00 90 1013.0
20260507062914 5 0 0.0 0.0 0.00 0.00 0.00 89 1013.0
20260507062414 5 0 0.0 0.0 0.00 0.00 0.00 88 1013.0
20260507061915 5 0 0.0 0.0 0.00 0.00 0.00 87 1013.0
20260507061415 5 0 0.0 0.0 0.00 0.00 0.00 86 1014.0
20260507060914 6 0 0.0 0.0 0.00 0.00 0.00 85 1014.0
20260507060414 6 0 0.0 0.0 0.00 0.00 0.00 84 1014.0
20260507055914 6 0 0.0 0.0 0.00 0.00 0.00 84 1014.0
20260507055414 6 0 0.0 0.0 0.00 0.00 0.00 83 1014.0
20260507054914 6 0 0.0 0.0 0.00 0.00 0.00 82 1014.0
20260507054415 6 0 0.0 0.0 0.00 0.00 0.00 81 1014.0
20260507053914 7 0 0.0 0.0 0.00 0.00 0.00 79 1014.0
20260507053414 7 0 0.0 0.0 0.00 0.00 0.00 78 1014.0
20260507052914 7 0 0.0 0.0 0.00 0.00 0.00 78 1014.0
20260507052414 7 0 0.0 0.0 0.00 0.00 0.00 77 1014.0
20260507051915 7 0 0.0 0.0 0.00 0.00 0.00 77 1014.0
20260507051414 7 0 0.0 0.0 0.00 0.00 0.00 76 1014.0
20260507050914 7 0 0.0 0.0 0.00 0.00 0.00 74 1014.0
20260507050416 7 0 0.0 0.0 0.00 0.00 0.00 75 1014.0
20260507045914 7 0 0.0 0.0 0.00 0.00 0.00 75 1014.0
20260507045415 7 0 0.0 0.0 0.00 0.00 0.00 73 1014.0
20260507044915 7 0 0.0 0.0 0.00 0.00 0.00 74 1014.0
20260507044415 8 0 0.0 0.0 0.00 0.00 0.00 74 1014.0
20260507043924 8 295 0.0 0.0 0.00 0.00 0.00 72 1014.0
20260507043414 8 304 0.0 1.6 0.00 0.00 0.00 72 1014.0
20260507042915 8 302 0.0 3.2 0.00 0.00 0.00 74 1014.0
20260507042414 8 0 0.0 0.0 0.00 0.00 0.00 74 1014.0
20260507041914 8 0 0.0 0.0 0.00 0.00 0.00 72 1014.0
20260507041414 8 0 0.0 0.0 0.00 0.00 0.00 72 1014.0
20260507040915 8 0 0.0 0.0 0.00 0.00 0.00 71 1014.0
20260507040414 8 28 1.6 3.2 0.00 0.00 0.00 70 1014.0
20260507035914 8 29 3.2 6.4 0.00 0.00 1.09 71 1014.0
20260507035414 8 0 0.0 0.0 0.00 0.00 1.09 72 1014.0
20260507034914 8 353 0.0 3.2 0.00 0.00 1.09 71 1014.0
20260507034415 8 0 0.0 0.0 0.00 0.00 1.09 71 1014.0
20260507033915 8 345 0.0 0.0 0.00 0.00 1.09 72 1014.0
20260507033415 8 328 0.0 1.6 0.00 0.00 1.09 72 1014.0
20260507032915 8 353 0.0 1.6 0.00 0.00 1.09 72 1014.0
20260507032415 8 320 0.0 1.6 0.00 0.00 1.09 72 1014.0
20260507031914 8 39 0.0 1.6 0.00 0.00 1.09 73 1014.0
20260507031415 8 317 0.0 3.2 0.00 0.00 1.09 72 1014.0
20260507030914 8 0 0.0 0.0 0.00 0.00 1.09 72 1014.0
20260507030415 8 0 0.0 0.0 0.00 0.00 1.09 74 1014.0
20260507025914 8 0 0.0 0.0 0.00 0.00 1.09 72 1014.0
20260507025415 8 0 0.0 0.0 0.00 0.00 1.09 73 1014.0
20260507024915 8 0 0.0 0.0 0.00 0.00 1.09 72 1014.0
20260507024415 8 0 0.0 0.0 0.00 0.00 1.09 71 1014.0
20260507023914 8 0 0.0 0.0 0.00 0.00 1.09 70 1014.0